Location: Banff
(51.1667°N, 115.5667°W)
Time: 15:37:42
(UTC+00:00)

Vanguard 1 - Pass Details

Date: 26 November 2020
Orbit: 649 x 3834 km, 34.3° (Epoch: 16 January)

Event Time Altitude Azimuth Distance (km) Brightness Sun altitude
Exits shadow 11:53:53 - 180° (S) 3,397 12.8 -31.2°
Reaches altitude 10° 11:58:26 10° 146° (SE) 3,188 13.0 -30.5°
Maximum altitude 11:59:41 10° 136° (SE) 3,304 13.2 -30.3°
Drops below altitude 10° 12:01:02 10° 127° (SE) 3,498 13.4 -30.1°
Sets 12:09:09 0° 94° (E) 5,472 15.1 -28.8°
